Location: Banios
(43.0451°N, 0.2335°E)
Time: 01:23:38
(UTC+00:00)

Transit 2A - Visible Passes

Search period start: 12 May 2021 00:00
Search period end: 22 May 2021 00:00
Orbit: 602 x 957 km, 66.7° (Epoch: 11 May)

Date Brightness Start Highest point End Pass type
(mag) Time Alt. Az. Time Alt. Az. Time Alt. Az.
12 May 8.0 00:33:15 14° E 00:33:15 14° E 00:34:28 10° ENE visible
12 May 5.8 02:13:44 48° W 02:14:34 56° NW 02:18:53 10° NNE visible
13 May 5.4 01:40:20 86° WNW 01:40:22 86° WNW 01:44:46 10° NNE visible
13 May 7.9 03:22:07 10° WNW 03:24:08 13° NW 03:26:10 10° NNW visible
14 May 6.1 01:06:54 53° ENE 01:06:54 53° ENE 01:10:32 10° NE visible
14 May 7.6 02:47:23 13° W 02:49:42 18° NW 02:52:41 10° N visible
15 May 7.0 00:33:27 31° ENE 00:33:27 31° ENE 00:36:11 10° NE visible
15 May 7.2 02:13:54 21° WNW 02:15:19 24° NW 02:18:55 10° N visible
15 May 7.6 23:59:57 19° ENE 23:59:57 19° ENE 00:01:39 10° NE visible
16 May 6.6 01:40:24 33° WNW 01:41:00 35° NW 01:45:01 10° NNE visible
16 May 8.1 23:26:24 11° ENE 23:26:24 11° ENE 23:26:48 10° ENE visible
17 May 6.1 01:06:52 52° NW 01:06:52 52° NW 01:11:01 10° NNE visible
18 May 6.0 00:33:17 60° NNE 00:33:17 60° NNE 00:36:55 10° NNE visible
18 May 8.1 02:14:38 10° WNW 02:16:23 12° NW 02:18:07 10° NNW visible
18 May 6.5 23:59:40 43° NE 23:59:40 43° NE 00:02:42 10° NE visible
19 May 7.8 01:40:07 13° WNW 01:41:55 16° NW 01:44:44 10° N visible
19 May 7.0 23:26:00 28° ENE 23:26:00 28° ENE 23:28:23 10° NE visible
20 May 7.4 01:06:27 21° WNW 01:07:31 23° NW 01:11:00 10° N visible
20 May 7.5 22:52:18 19° ENE 22:52:18 19° ENE 22:53:53 10° NE visible
21 May 6.8 00:32:44 31° WNW 00:33:12 32° NW 00:37:08 10° NNE visible
21 May 7.9 22:18:30 12° ENE 22:18:30 12° ENE 22:19:07 10° ENE visible
